Voltar ao catálogo

FLOCK 4G 18

AtivoCiênciaSSO
NORAD 62680·PAYLOAD·🇺🇸 United States

Lançado Jan 14, 2025 de Vandenberg Space Force Base

Loading…

Próximas Passagens (próximas 24 horas)

TLE

AtualizadoSource: Space-Track

Época: Sep 14, 2026, 11:56 UTC

1 62680U 25009BZ  26257.49733742  .00034018  00000-0  95785-3 0  9992
2 62680  97.3950 339.3002 0004151  22.1392 338.0031 15.36376606150228

Acompanhe FLOCK 4G 18 em tempo real com AllMySat

Download on the App Store